CAPE
0 0 0 0 0 0 0 0 0 4 96 400 1403 1432 1544 1767 775 152 1403 1457 1709 1663 1568 1291 1152 1118 1158 1219 1192 1111 1105 1117 1197 1229 1225 1185 1173 1153 1177 1280 1477 1665 1678 1582 1522 1446 1326 1108 778
0 0 0 0 0 0 0 0 0 124 325 466 545 637 1349 1258 1248 684 1130 1360 1211 1290 1056 1012 1294 1377 1334 1319 1332 1302 1260 1199 1228 1364 1446 1445 1487 1411 1386 1475 1315 1489 1672 1678 1645 1556 1304 1008 717
0 0 0 0 0 0 0 0 109 135 162 37 285 556 662 921 189 214 346 1143 1005 814 593 657 958 1278 1456 1457 1411 1376 1358 1321 1297 1337 1440 1543 1508 1418 1435 1407 1361 1381 1519 1716 1684 1631 1290 805 579
0 0 0 0 0 0 0 0 5 1 4 9 102 8 24 0 0 36 858 1061 921 562 300 190 427 644 853 964 1161 1335 1356 1330 1331 1373 1397 1398 1357 1409 1274 1180 1177 1234 1387 1441 1557 1447 1317 771 544
0 0 0 0 0 0 0 0 0 0 0 0 122 462 124 0 0 279 470 493 560 491 404 60 73 55 96 296 382 439 571 733 896 950 1120 1310 1395 1419 1371 1321 1166 1116 1207 1272 1296 1413 1361 936 568
0 0 0 0 0 0 0 0 0 0 0 19 341 137 53 0 0 87 116 81 131 108 146 248 16 0 0 1 9 15 100 154 235 246 319 532 793 1111 1325 1337 1281 1357 1321 1234 1241 1212 1225 1113 764
0 0 0 0 0 0 0 0 0 0 0 0 0 175 3 0 0 0 0 0 0 0 0 0 1 0 0 0 0 0 0 0 0 0 37 283 659 546 732 942 1073 1101 1154 1257 1208 1107 1076 1123 1028
0 0 0 0 0 0 0 0 0 0 0 0 1 13 18 0 0 0 0 0 0 0 0 0 0 0 0 0 0 0 0 0 0 0 0 14 541 410 296 292 255 343 606 758 965 1111 1058 984 933
0 0 0 0 0 0 0 0 0 0 0 0 19 113 5 0 0 0 0 0 0 0 0 0 0 0 0 0 0 0 0 0 0 0 0 0 0 0 0 0 18 154 324 349 463 642 884 1017 992
0 0 0 0 0 0 0 0 0 0 0 0 0 0 0 0 0 0 0 0 0 0 0 0 0 0 0 0 0 0 0 0 0 0 0 0 0 0 0 0 0 0 22 1 0 65 422 867 1026
0 0 0 0 0 0 0 0 0 0 0 0 0 0 0 0 0 0 0 0 0 0 0 0 0 0 0 0 0 0 0 0 0 0 0 0 0 0 0 0 0 0 0 0 0 0 0 0 193
0 0 0 0 0 0 0 0 0 0 0 0 0 0 0 0 0 0 0 0 0 0 0 0 0 0 0 0 0 0 0 0 0 0 0 0 0 0 0 0 0 0 0 0 0 0 0 0 0
0 0 0 0 0 0 0 0 0 0 0 0 0 0 0 0 0 0 0 0 0 0 0 0 0 0 0 0 0 0 0 0 0 0 0 0 0 0 0 0 0 0 0 0 0 0 0 0 0
0 0 0 0 0 0 0 0 0 0 0 0 0 0 0 0 0 0 0 0 0 0 0 0 0 0 0 0 0 0 0 0 0 0 0 0 0 0 0 0 0 0 0 0 0 0 0 0 0
0 0 0 0 0 0 0 0 0 0 0 0 0 0 0 0 0 0 0 0 0 0 0 0 0 0 0 0 0 0 0 0 0 0 0 0 0 0 0 0 0 0 0 0 0 0 0 0 0
0 0 0 0 0 0 0 0 0 0 0 0 0 0 0 0 0 0 0 0 0 0 0 0 0 0 0 0 0 0 0 0 0 0 0 0 0 0 0 0 0 0 0 0 0 0 0 0 0
0 0 0 0 0 0 0 0 0 0 0 0 0 0 0 0 0 0 0 0 0 0 0 0 0 0 0 0 0 0 0 0 0 0 0 0 0 0 0 0 0 0 0 0 0 0 0 0 0
0 0 0 0 0 0 0 0 0 0 0 0 0 0 0 0 0 0 0 0 0 0 0 0 0 0 0 0 0 0 0 0 0 0 0 0 0 0 0 0 0 0 0 0 0 0 0 0 0
0 0 0 0 0 0 0 0 0 0 0 0 0 0 0 0 0 0 0 0 0 0 0 0 0 0 0 0 0 0 0 0 0 0 0 0 0 0 0 0 0 0 0 0 0 0 0 0 0
0 0 0 0 0 0 0 0 0 0 0 0 0 0 0 0 0 0 0 0 0 0 0 0 0 0 0 0 0 0 0 0 0 0 0 0 0 0 0 0 0 0 0 0 0 0 0 0 0
0 0 0 0 0 0 0 0 0 0 0 0 0 0 0 0 0 0 0 0 0 0 0 0 0 0 0 0 0 0 0 0 0 0 0 0 0 0 0 0 0 0 0 0 1 0 0 1 0
0 0 0 0 0 0 0 0 0 0 0 0 0 0 0 0 0 0 0 0 0 0 0 0 0 0 0 0 0 0 0 0 0 0 0 0 0 0 0 0 0 0 0 0 1 2 1 2 3
0 0 0 0 0 0 0 0 0 0 0 0 0 0 0 0 0 0 0 0 0 0 0 0 0 0 0 0 0 0 0 0 0 0 0 0 0 0 0 0 0 0 0 0 0 0 2 4 4
0 0 0 0 0 0 0 0 0 0 0 0 0 0 0 0 0 0 0 0 0 0 0 0 0 0 0 0 0 0 0 0 0 0 0 0 0 0 0 0 0 0 0 1 0 0 2 1 1
0 0 0 0 0 0 0 0 0 0 0 0 0 0 0 0 0 0 0 0 0 0 0 0 0 0 0 0 0 0 0 0 0 0 0 0 0 0 0 0 0 0 1 3 1 3 2 0 1
0 0 0 0 0 0 0 0 0 0 0 0 0 0 0 0 0 0 0 0 0 0 0 0 0 0 0 0 0 0 0 0 0 0 0 0 0 0 0 0 0 0 0 2 2 4 4 3 1
0 0 0 0 0 0 0 0 0 0 0 0 0 0 0 0 0 0 0 0 0 0 0 0 0 0 0 0 0 0 0 0 0 0 0 0 0 0 0 0 0 0 2 0 0 2 3 0 3
0 0 0 0 0 0 0 0 0 0 0 0 0 0 0 0 0 0 0 0 0 0 0 0 0 0 0 0 0 0 0 0 0 0 0 0 0 0 0 0 0 0 0 1 3 5 1 1 0
0 0 0 0 0 0 0 0 0 0 0 0 0 0 0 0 0 0 0 0 0 0 0 0 0 0 0 0 0 0 0 0 0 0 0 0 0 0 0 0 0 0 3 1 4 7 0 0 1
0 0 0 0 0 0 0 0 0 0 0 0 0 0 0 0 0 0 0 0 0 0 0 0 0 0 0 0 0 0 0 0 0 0 0 0 0 0 0 0 0 0 0 1 8 2 0 0 0
CIN
0 0 0 0 0 0 0 -1 0 -17 -55 -50 -94 -137 -182 -127 -83 -193 -23 -8 -8 -22 -44 -75 -129 -135 -122 -92 -83 -90 -78 -76 -57 -43 -39 -47 -46 -39 -33 -15 -1 0 0 0 0 0 -2 -14 -32
0 0 0 0 0 0 -4 0 0 -61 -81 -75 -51 -130 -155 -163 -135 -178 -47 -11 -39 -54 -107 -111 -78 -64 -63 -67 -62 -57 -59 -57 -50 -28 -18 -19 -16 -23 -23 -17 -23 -10 0 0 0 0 -5 -17 -41
0 0 0 0 0 0 0 0 -76 -124 -81 -95 -133 -241 -282 -225 -425 -344 -241 -48 -76 -107 -181 -188 -117 -58 -36 -28 -24 -35 -32 -30 -32 -30 -23 -13 -13 -20 -15 -19 -23 -20 -8 -1 0 -1 -4 -38 -79
0 0 0 0 0 -11 0 -1 -179 -3 -98 -114 -173 -124 -214 0 0 -162 -116 -67 -101 -174 -251 -291 -218 -162 -107 -68 -36 -18 -12 -12 -15 -14 -13 -15 -20 -18 -26 -31 -32 -29 -16 -10 -3 -5 -12 -49 -86
0 0 0 0 0 0 0 0 0 0 0 0 -149 -206 -420 0 0 -281 -202 -184 -177 -179 -193 -328 -323 -339 -301 -215 -176 -141 -97 -61 -44 -40 -28 -17 -16 -12 -14 -20 -32 -30 -18 -9 -9 -5 -6 -33 -80
0 0 0 0 0 0 0 0 0 0 0 -122 -126 -244 -290 0 0 -378 -352 -356 -300 -297 -261 -210 -260 0 0 -208 -181 -163 -260 -209 -165 -161 -130 -64 -39 -11 -5 -8 -7 -5 -6 -10 -6 -6 -6 -9 -47
0 0 0 0 0 0 0 0 0 0 0 0 0 -151 -35 0 0 0 0 0 0 0 0 0 -20 0 0 0 0 0 0 0 0 0 -244 -111 -32 -30 -25 -16 -9 -14 -19 -12 -15 -19 -18 -15 -19
0 0 0 0 0 0 0 0 0 0 0 0 -11 -89 -229 0 0 0 0 0 0 0 0 0 0 0 0 0 0 0 0 0 0 0 0 -38 -16 -21 -50 -57 -91 -77 -48 -39 -28 -15 -12 -18 -32
0 0 0 0 0 0 0 0 0 0 0 0 -343 -287 -115 0 0 0 0 0 0 0 0 0 0 0 0 0 0 0 0 0 0 0 0 0 0 0 0 0 -152 -127 -67 -66 -57 -42 -30 -15 -20
0 0 0 0 -6 0 0 0 0 0 0 0 0 0 0 0 0 0 0 0 0 0 0 0 0 0 0 0 0 0 0 0 0 0 0 0 0 0 0 0 0 0 -76 -34 0 -58 -46 -6 -1
0 0 0 0 0 0 0 0 0 0 0 0 0 0 0 0 0 0 0 0 0 0 0 0 0 0 0 0 0 0 0 0 0 0 0 0 0 0 0 0 0 0 0 0 0 0 0 -17 -89
0 0 0 0 0 0 0 0 0 0 0 0 0 0 0 0 0 0 0 0 0 0 0 0 0 0 0 0 0 0 0 0 0 0 0 0 0 0 0 0 0 0 0 0 0 0 0 0 0
0 0 0 0 0 0 0 0 0 0 0 0 0 0 0 0 0 0 0 0 0 0 0 0 0 0 0 0 0 0 0 0 0 0 0 0 0 0 0 0 0 0 0 0 0 0 0 0 0
0 0 0 0 0 0 0 0 0 0 0 0 0 0 0 0 0 0 0 0 0 0 0 0 0 0 0 0 0 0 0 0 0 0 0 0 0 0 0 0 0 0 0 0 0 0 0 0 0
0 0 0 0 0 0 0 0 0 0 0 0 0 0 0 0 0 0 0 0 0 0 0 0 0 0 0 0 0 0 0 0 0 0 0 0 0 0 0 0 0 0 0 0 0 0 0 0 0
0 0 0 0 0 0 0 0 0 0 0 0 0 0 0 0 0 0 0 0 0 0 0 0 0 0 0 0 0 0 0 0 0 0 0 0 0 0 0 0 0 0 0 0 0 0 0 0 0
0 0 0 0 0 0 0 0 0 0 0 0 0 0 0 0 0 0 0 0 0 0 0 0 0 0 0 0 0 0 0 0 0 0 0 0 0 0 0 0 0 0 0 0 0 0 0 0 0
0 0 0 0 0 0 0 0 0 0 0 0 0 0 0 0 0 0 0 0 0 0 0 0 0 0 0 0 0 0 0 0 0 0 0 0 0 0 0 0 0 0 0 0 0 0 0 0 0
0 0 0 0 0 0 0 0 0 0 0 0 0 0 0 0 0 0 0 0 0 0 0 0 0 0 0 0 0 0 0 0 0 0 0 0 0 0 0 0 0 0 0 0 0 0 0 0 0
0 0 0 0 0 0 0 0 0 0 0 0 0 0 0 0 0 0 0 0 0 0 0 0 0 0 0 0 0 0 0 0 0 0 0 0 0 0 0 0 0 0 0 0 0 0 0 -1 0
0 0 0 0 0 0 0 0 0 0 0 0 0 0 0 0 0 0 0 0 0 0 0 0 0 0 0 0 0 0 0 0 0 0 0 0 0 0 0 0 0 0 -1 0 -1 0 0 0 0
0 0 0 0 0 0 0 0 0 0 0 0 0 0 0 0 0 0 0 0 0 0 0 0 0 0 0 0 0 0 0 0 0 0 0 0 0 0 0 0 0 0 0 0 -1 -2 0 0 0
0 0 0 0 0 0 0 0 0 0 0 0 0 0 0 0 0 0 0 0 0 0 0 0 0 0 0 0 0 0 0 0 0 0 0 0 0 0 0 0 0 0 0 0 -2 0 -4 0 -1
0 0 0 0 0 0 0 0 0 0 0 0 0 0 0 0 0 0 0 0 0 0 0 0 0 0 0 0 0 0 0 0 0 0 0 0 0 0 0 0 0 0 0 -1 0 0 -1 -1 0
0 0 0 0 0 0 0 0 0 0 0 0 0 0 0 0 0 0 0 0 0 0 0 0 0 0 0 0 0 0 0 0 0 0 0 0 0 0 0 0 0 0 -1 -2 -1 -1 -1 -1 -2
0 0 0 0 0 0 0 0 0 0 0 0 0 0 0 0 0 0 0 0 0 0 0 0 0 0 0 0 0 0 0 0 0 0 0 0 0 0 0 0 0 0 0 -2 -1 -1 -1 -2 -5
0 0 0 0 0 0 0 0 0 0 0 0 0 0 0 0 0 0 0 0 0 0 0 0 0 0 0 0 0 0 0 0 0 0 0 0 0 0 0 0 0 0 0 -5 -1 -1 -1 -3 0
0 0 0 0 0 0 0 0 0 0 0 0 0 0 0 0 0 0 0 0 0 0 0 0 0 0 0 0 0 0 0 0 0 0 0 0 0 0 0 0 0 0 0 -4 -3 -2 -5 -1 -3
0 0 0 0 0 0 0 0 0 0 0 0 0 0 0 0 0 0 0 0 0 0 0 0 0 0 0 0 0 0 0 0 0 0 0 0 0 0 0 0 0 0 -1 0 -1 -2 -1 -1 -2
0 0 0 0 0 0 -8 0 0 0 0 0 0 0 0 0 0 0 0 0 0 0 0 0 0 0 0 0 0 0 0 0 0 0 0 0 0 0 0 0 0 0 0 -1 -1 -5 -1 -2 0
Wind_Speed
24 24 8 18 8 8 14 9 10 11 14 15 15 14 14 17 12 11 15 19 20 22 22 20 21 20 20 21 21 21 21 21 22 22 22 22 21 22 23 23 23 23 23 23 23 23 23 23 23
22 22 9 21 6 9 1 8 12 10 10 11 11 13 14 15 16 14 14 19 20 20 22 22 22 21 21 21 21 21 21 21 21 21 22 22 22 22 22 22 22 22 23 23 22 22 23 23 23
21 19 21 8 13 4 15 9 8 10 9 10 12 15 15 14 14 13 15 16 19 20 21 22 22 22 22 22 21 21 21 22 22 22 22 22 22 22 22 22 22 22 22 22 22 22 22 23 22
20 19 16 7 14 14 12 10 10 8 8 10 10 13 13 15 12 13 15 16 18 20 21 22 22 23 23 22 22 22 22 22 22 23 23 23 23 23 22 22 22 23 23 23 23 22 22 22 22
24 22 11 18 8 13 13 8 7 6 8 11 10 10 11 12 11 13 14 16 17 19 20 21 22 22 23 23 23 23 23 23 24 24 25 25 25 24 24 24 24 24 24 24 24 23 23 22 22
25 20 5 6 7 11 12 9 6 7 8 12 13 10 10 9 10 12 13 15 17 18 19 20 21 23 23 23 23 23 23 24 25 26 26 27 26 26 26 25 26 26 26 26 26 25 24 23 22
21 28 25 29 9 9 8 9 7 6 7 13 9 10 8 7 9 11 13 15 17 18 19 20 20 20 22 23 23 24 24 24 25 26 26 26 26 27 27 28 27 27 28 27 26 26 25 24 22
28 29 29 31 11 11 5 8 10 5 7 9 17 8 4 5 8 11 13 15 17 18 19 20 21 21 21 21 21 23 24 25 27 27 28 25 25 26 26 27 27 27 28 29 29 26 24 23 21
26 20 18 18 16 7 2 4 14 10 8 12 14 10 8 10 10 10 11 14 16 18 19 20 20 21 21 21 22 23 24 26 27 28 28 27 27 28 28 27 26 26 27 28 28 29 28 22 20
17 20 17 26 10 2 2 3 7 7 7 8 9 9 9 9 7 8 10 13 15 17 18 19 19 21 21 22 23 23 25 26 27 29 29 28 28 29 30 30 31 30 26 29 32 31 30 28 26
23 15 31 22 18 9 5 4 4 4 5 2 3 4 6 5 6 9 11 12 13 15 16 17 18 20 21 21 22 23 24 25 26 28 30 29 29 30 31 30 31 31 31 32 33 32 30 30 31
22 27 27 25 14 14 10 8 6 12 17 5 4 4 4 4 6 7 9 10 12 14 15 16 17 19 20 21 22 23 24 25 26 27 30 30 30 31 31 31 31 32 32 33 33 33 34 34 32
20 25 23 18 15 18 20 10 8 9 8 5 4 4 3 4 6 8 9 10 11 12 14 15 16 18 20 21 21 23 25 25 26 27 29 30 31 32 32 32 32 33 34 35 35 35 36 35 35
25 28 25 16 13 18 18 15 8 6 4 3 3 3 4 4 5 6 7 8 10 11 12 14 16 17 18 20 21 23 24 25 26 27 28 31 31 33 33 33 33 33 36 36 36 37 37 37 37
30 28 25 19 15 16 15 21 10 7 5 6 4 3 3 3 5 5 7 8 9 10 11 13 15 17 18 20 22 23 25 25 27 28 29 32 32 33 34 34 33 35 36 36 36 36 37 38 38
27 27 27 18 15 17 13 17 13 9 6 6 4 3 3 3 5 8 8 8 9 9 11 14 15 17 19 20 21 22 24 25 26 27 29 32 33 35 36 35 35 37 36 37 37 38 39 39 40
23 29 30 26 21 14 14 22 17 9 7 7 6 5 4 5 6 7 7 7 8 9 10 13 15 17 18 20 20 21 23 25 26 28 30 32 33 35 36 35 36 37 36 36 37 38 39 40 41
22 23 25 36 26 13 12 14 12 10 9 10 8 7 6 7 7 6 6 7 8 9 10 12 14 16 17 19 20 22 23 25 26 28 30 32 34 35 35 35 36 36 37 37 38 39 38 39 41
32 40 38 33 35 15 21 17 14 13 11 11 10 9 8 9 7 5 6 6 6 8 10 12 14 16 17 20 22 24 25 26 27 29 30 31 33 34 35 36 37 37 37 37 38 38 40 39 41
20 31 38 34 32 20 22 27 24 15 15 13 13 11 10 8 7 7 6 6 7 8 9 11 14 16 18 19 20 22 23 25 26 29 30 32 32 33 34 35 35 36 36 36 38 38 39 37 39
25 26 31 35 34 22 27 36 31 18 16 14 15 12 11 10 8 7 7 7 8 9 10 11 13 15 18 18 20 23 23 26 29 31 31 34 32 33 33 34 34 36 35 34 36 37 39 40 38
29 24 28 28 31 33 21 36 25 21 19 16 13 12 12 11 9 8 7 8 9 10 10 11 12 13 16 20 21 24 26 28 29 31 32 32 32 32 33 35 35 35 35 35 36 37 37 38 39
25 30 28 31 30 36 32 34 29 28 23 20 16 15 13 11 10 9 8 8 9 9 9 9 11 13 16 19 22 24 26 28 29 30 32 31 32 31 32 33 34 36 35 36 36 37 37 36 38
26 26 27 30 30 35 30 31 35 29 28 21 18 15 12 11 10 9 9 8 9 8 8 9 10 13 16 18 21 24 26 28 29 31 31 32 31 32 32 34 35 36 35 35 35 37 37 37 37
23 23 30 31 31 38 28 29 31 27 26 19 17 14 13 12 11 9 9 8 7 8 8 9 10 13 15 18 21 23 26 27 29 30 31 32 32 33 34 35 35 35 35 35 35 36 36 36 36
29 26 29 34 35 36 30 33 35 22 16 10 14 16 14 13 12 10 9 8 8 7 7 9 11 13 15 17 20 22 25 27 29 30 31 30 31 32 33 34 34 35 35 34 36 35 35 36 38
30 32 32 40 44 42 37 35 28 18 17 19 19 13 15 14 13 12 9 8 8 6 8 10 11 13 15 17 19 22 24 27 28 29 29 30 31 32 33 33 34 34 34 35 36 36 37 39 38
30 30 33 33 44 47 44 40 38 28 25 22 22 15 14 13 12 11 9 8 6 7 8 10 11 13 14 17 19 22 25 26 28 28 29 29 31 31 32 33 32 34 35 36 37 37 38 38 40
30 35 34 34 36 44 44 41 24 27 19 20 20 16 14 13 12 11 9 7 7 8 8 10 11 12 14 17 20 23 25 26 27 27 28 29 30 31 32 32 33 35 35 36 36 36 37 41 42
35 36 36 40 42 38 42 47 23 25 22 17 18 16 15 14 12 11 10 8 8 8 9 9 10 12 14 16 20 22 24 26 27 27 28 29 30 30 31 31 33 34 34 34 34 34 36 38 40
Wind_Direction
287 291 84 205 59 111 188 346 13 336 330 349 7 24 34 356 18 18 26 24 30 20 27 27 25 19 21 20 17 17 17 17 20 21 23 25 27 22 13 4 355 350 345 348 353 354 355 357 360
283 266 290 256 107 151 48 31 334 33 4 353 3 8 358 4 15 22 21 25 25 28 27 27 24 19 18 17 15 10 7 8 9 10 10 12 12 11 13 14 10 5 1 0 2 2 0 360 1
246 225 242 44 161 148 356 356 45 53 32 2 345 349 339 352 358 5 18 33 38 33 30 26 24 21 17 12 7 6 4 1 359 1 1 0 1 2 1 2 3 3 3 1 2 4 2 1 3
264 217 197 119 170 332 351 29 45 19 356 358 12 356 10 351 357 10 24 40 33 31 31 25 22 18 15 10 5 3 360 358 356 353 351 352 353 354 354 353 352 350 348 349 351 353 356 356 358
237 254 172 204 173 341 341 17 33 36 16 359 31 4 10 3 12 22 22 26 31 28 29 27 25 20 15 11 6 2 358 356 353 350 346 344 342 343 343 342 342 342 342 342 342 345 347 349 350
259 197 172 170 330 345 321 1 38 41 32 21 18 18 8 24 22 19 22 21 19 24 20 23 23 21 17 13 10 7 3 358 353 349 345 343 342 341 339 339 338 334 334 334 335 336 338 340 342
237 265 231 249 356 354 342 324 331 30 30 359 14 1 12 35 29 26 28 23 19 14 14 12 13 22 17 16 14 11 8 7 2 356 352 350 351 346 344 339 341 336 334 333 334 333 334 335 336
276 276 244 249 326 330 355 342 328 351 6 345 332 353 16 70 63 45 31 23 16 11 7 2 5 7 14 17 19 16 14 11 4 358 352 357 359 354 353 349 347 343 339 334 332 334 334 334 334
276 307 307 299 302 324 15 340 331 353 9 350 346 16 70 95 81 52 33 20 10 4 2 1 3 8 12 19 17 13 10 8 5 359 354 356 356 354 351 352 353 351 349 343 341 337 334 334 332
301 295 313 308 313 23 20 325 324 342 344 350 3 33 70 89 70 41 16 6 3 0 2 3 5 4 11 10 7 10 9 9 9 3 358 358 358 353 350 348 345 346 352 346 339 336 336 338 335
287 299 288 312 315 345 343 326 329 327 309 310 352 39 74 71 29 13 9 11 13 10 8 8 9 4 6 10 8 8 8 8 6 3 357 355 357 354 351 350 349 348 347 345 343 342 342 337 331
290 284 297 304 314 305 316 306 334 324 332 104 64 74 51 29 12 13 14 19 16 15 9 7 6 5 3 6 4 4 7 3 2 0 355 352 351 350 349 349 347 346 346 342 341 340 337 334 334
295 291 301 299 323 297 295 294 289 318 354 47 58 42 37 7 0 7 10 15 22 14 12 8 7 6 7 8 8 7 2 4 1 1 358 354 351 349 347 345 343 342 340 338 336 335 333 332 330
289 295 296 301 302 293 289 287 284 303 317 321 321 337 345 337 346 359 7 10 7 14 15 14 9 10 9 8 6 3 359 358 358 357 357 353 351 347 344 342 341 341 338 336 334 332 330 328 326
286 290 291 292 293 287 285 276 253 261 270 283 283 300 321 327 333 335 348 352 2 11 9 5 6 4 3 2 359 360 356 357 355 354 355 352 351 347 343 342 342 341 337 335 334 333 331 327 325
290 289 288 288 274 277 266 278 259 229 232 262 262 272 290 303 314 321 331 344 360 0 358 356 358 359 359 357 358 358 355 354 354 353 351 348 348 345 342 340 340 338 337 335 334 333 329 327 324
291 285 285 288 284 261 248 282 292 221 228 249 254 262 259 279 299 312 325 339 345 354 352 353 353 355 356 357 358 357 356 354 353 351 349 347 346 344 341 340 340 340 339 338 336 333 330 327 324
292 287 284 270 280 247 252 268 272 248 244 252 254 253 252 268 279 297 314 329 340 345 350 353 354 355 358 356 355 354 354 354 353 350 349 348 346 346 345 344 343 343 338 337 336 333 332 330 326
284 270 272 280 287 252 272 274 255 247 248 252 256 253 253 267 273 286 306 318 333 339 343 348 350 352 354 350 348 347 347 347 348 348 348 349 348 347 345 343 341 341 339 338 337 334 331 330 330
296 287 276 281 281 279 280 279 283 239 246 249 254 247 246 254 253 274 290 301 315 325 336 343 347 349 352 354 352 350 348 347 348 348 348 348 348 348 345 344 343 342 340 340 338 335 332 331 332
293 292 287 281 279 280 283 281 281 257 252 259 259 250 244 245 246 263 280 291 307 314 324 336 345 351 352 353 352 349 348 347 344 344 344 344 347 347 347 346 345 343 342 341 339 335 332 328 330
290 296 292 289 283 278 282 288 284 265 251 252 255 245 241 236 239 257 272 285 296 311 323 335 345 350 352 350 349 348 345 343 343 344 345 345 347 347 348 347 345 344 342 340 337 335 332 331 326
290 292 293 291 283 282 279 285 289 283 263 252 252 253 244 235 240 258 270 283 296 309 317 334 342 348 349 350 349 347 345 344 344 345 344 346 346 348 348 347 345 342 340 338 336 334 331 330 327
291 291 294 288 288 279 281 282 283 283 287 252 254 253 244 239 242 258 273 282 295 307 319 327 337 342 345 347 347 345 344 344 344 344 344 345 346 346 346 345 343 340 339 339 337 333 331 329 329
276 281 288 283 276 280 287 281 280 294 294 258 249 250 245 248 251 256 264 271 288 302 308 320 330 337 342 343 344 346 346 346 345 345 344 343 344 344 344 344 342 341 340 339 337 335 333 332 330
267 265 273 281 281 286 289 279 287 296 309 297 275 254 249 252 258 255 255 262 284 294 301 315 324 332 338 342 345 347 347 346 345 344 344 345 345 345 345 344 343 342 340 340 337 335 334 332 330
264 260 272 278 281 285 284 288 301 305 294 292 291 262 252 255 258 258 251 259 276 289 304 313 322 331 336 342 345 346 346 345 345 345 347 346 346 346 346 345 344 343 342 340 338 336 334 332 330
260 273 273 270 278 276 278 282 286 291 284 288 290 275 263 261 259 252 249 255 269 293 308 315 320 328 336 342 343 344 345 346 346 346 346 347 347 347 346 346 346 344 342 341 338 337 335 333 330
268 268 269 279 272 277 282 283 295 306 298 286 291 286 277 270 258 255 251 253 279 294 307 310 317 326 334 339 341 342 343 345 346 347 347 349 348 348 346 346 345 344 343 342 341 340 339 335 331
273 276 271 269 273 279 276 276 292 314 312 294 287 287 281 272 262 257 253 257 277 288 299 305 315 324 333 338 339 341 343 345 346 347 348 349 348 348 347 348 347 346 345 345 344 347 346 344 340